Regional Weather Roundup
Issued by NWS

Home | Current Version | Previous Version | Graphics & Text | Print | Product List | Glossary On
Versions: 1 2 3 4 5 6 7 8 9 10 11 12 13 14 15 16 17 18 19 20 21 22 23 24 25 26 27 28 29 30 31 32 33 34 35 36 37 38 39 40 41 42 43 44 45 46 47 48 49 50
000
ASUS43 KBIS 230202
RWRND

NORTH DAKOTA REGIONAL WEATHER ROUNDUP
NATIONAL WEATHER SERVICE BISMARCK ND
900 PM CDT WED MAR 22 2017

NOTE: "FAIR" INDICATES FEW OR NO CLOUDS BELOW 12,000 FEET WITH NO
SIGNIFICANT WEATHER AND/OR OBSTRUCTIONS TO VISIBILITY.


NDZ001>003-009>011-017-230300-
NORTHWEST NORTH DAKOTA

CITY           SKY/WX    TMP DP  RH WIND       PRES   REMARKS
WILLISTON      FAIR      42  32  67 CALM      29.77F
MINOT          FAIR      36  29  75 SE13      29.83F
MINOT AFB      CLOUDY    34  30  84 SE9       29.83S
$$

NDZ018>021-031>035-040>046-230300-
SOUTHWEST NORTH DAKOTA

CITY           SKY/WX    TMP DP  RH WIND       PRES   REMARKS
BISMARCK       FAIR      36  29  75 SE12      29.90R
DICKINSON      FAIR      43  35  73 SE8       29.77R
GARRISON         N/A     34  29  82 SE16      29.83F
HETTINGER ARPT CLEAR     43  33  68 E10       29.79F
$$

NDZ004>008-012>016-024-026-027-054-230300-
NORTHEAST NORTH DAKOTA

CITY           SKY/WX    TMP DP  RH WIND       PRES   REMARKS
GRAND FORKS    CLOUDY    33  17  51 S18       30.08F
GRND FRKS AFB  CLOUDY    32  22  67 S21G29    30.07F WCI  20
DEVILS LAKE    FAIR      29  24  82 SE16G25   29.99S WCI  17
$$

NDZ022-023-025-028>030-036>039-047>053-230300-
SOUTHEAST NORTH DAKOTA

CITY           SKY/WX    TMP DP  RH WIND       PRES   REMARKS
FARGO          CLOUDY    35  24  64 SE21G30   30.10F
JAMESTOWN      FAIR      30  25  81 SE15      29.98F WCI  19
$$





USA.gov is the U.S. government's official web portal to all federal, state and local government web resources and services.